Estación de San Julian

Ultimos registro cada 15 minutos 31
Estación Fecha / Hora Temperatura Humedad Lluvia Velocidad Dirección Radiación Presion
31 San Julian 04-05-2026 07:30 11,6 60,1 0 0 69 5,6 984,5
30 San Julian 04-05-2026 07:15 11,6 61,1 0 0 72 0,6 984,3
29 San Julian 04-05-2026 07:00 10,8 62,9 0 0 77 0,6 984,4
28 San Julian 04-05-2026 06:45 10,1 64,6 0 0 77 0,6 984,4
27 San Julian 04-05-2026 06:30 10,4 65,6 0 0 77 0,6 984,3
26 San Julian 04-05-2026 06:15 10 64,6 0 0 77 0,6 984,2
25 San Julian 04-05-2026 06:00 8,8 67,8 0 0 77 0,6 983,9
24 San Julian 04-05-2026 05:45 9,7 65,1 0 0 77 0,6 983,9
23 San Julian 04-05-2026 05:30 7,9 69,5 0 0 77 0,6 983,8
22 San Julian 04-05-2026 05:15 8 67,5 0 0 77 0,6 983,9
21 San Julian 04-05-2026 05:00 9,1 63,8 0 0 77 0,6 983,6
20 San Julian 04-05-2026 04:45 8,8 63,9 0 0 77 0,6 983,6
19 San Julian 04-05-2026 04:30 9,1 63,9 0 0 77 0,6 983,7
18 San Julian 04-05-2026 04:15 10,1 62,3 0 0 77 0,6 983,7
17 San Julian 04-05-2026 04:00 11,5 56,9 0 0 77 0,6 983,5
16 San Julian 04-05-2026 03:45 11 57,8 0 0 77 0,6 983,4
15 San Julian 04-05-2026 03:30 11,4 55,7 0 0 76 0,6 983,4
14 San Julian 04-05-2026 03:15 12,2 54,3 0 0 72 0,6 983,3
13 San Julian 04-05-2026 03:00 13,2 52,4 0 0 69 0,6 983,5
12 San Julian 04-05-2026 02:45 13,4 52,7 0 0 67 0,6 983,4
11 San Julian 04-05-2026 02:30 14 49,6 0 0 59 0,6 983,5
10 San Julian 04-05-2026 02:15 14,5 49,4 0 0 34 0,6 983,6
9 San Julian 04-05-2026 02:00 15,1 46,6 0 0 28 0,6 983,6
8 San Julian 04-05-2026 01:45 15,1 46,8 0 0 35 0,6 983,8
7 San Julian 04-05-2026 01:30 15,4 46,8 0 0 51 0,6 983,8
6 San Julian 04-05-2026 01:15 15,2 47,4 0 0 63 0,6 983,8
5 San Julian 04-05-2026 01:00 14,7 48,7 0 0 62 0,6 983,9
4 San Julian 04-05-2026 00:45 13,4 50,2 0 0 80 0,6 984
3 San Julian 04-05-2026 00:30 12,9 51,3 0 0 83 0,6 984,2
2 San Julian 04-05-2026 00:15 13 51,6 0 0 102 0,6 984,4
1 San Julian 04-05-2026 00:00 10,1 56,7 0 0 108 0,6 984,7